Location: Archinard
(44.6627°N, 6.3183°E)
Time: 11:27:44
(UTC+00:00)

Daily predictions for brighter satellites

Satellite Brightness Start Highest point End
(mag) Time Altitude Azimuth Time Altitude Azimuth Time Altitude Azimuth
USA 238 4.1 18:41:36 10° NW 18:49:06 85° NE 18:57:14 10° SE
Timation 2 Rocket 4.2 18:46:06 10° NNW 18:52:32 87° ENE 18:59:12 10° SSE
Cosmos 1125 Rocket 3.7 18:49:22 10° S 18:54:25 52° ESE 18:59:32 10° NNE
NOSS 2-1 (D) 3.8 18:52:06 10° NNW 18:55:20 41° NE 18:59:28 10° ESE
COBE Rocket 4.2 18:53:00 10° N 18:58:06 80° WNW 19:03:13 10° SSW
ERS-1 Rocket 3.9 18:55:26 10° SE 18:59:47 31° ENE 19:04:10 10° N
COSMOS 2428 4.3 18:54:45 10° SW 19:00:10 42° WNW 19:05:37 10° NNE
Cosmos 2341 Rocket 4.0 18:55:36 10° S 19:01:51 79° E 19:08:12 10° N
BREEZE-M DEB (TANK) 3.5 19:00:48 10° WNW 19:02:52 27° N 19:05:10 10° ENE
CSL-04 Debris 4.3 18:57:51 10° SSE 19:03:06 58° ENE 19:08:24 10° N
In-Cosmos 22 Rocket 4.5 18:58:09 10° NNW 19:03:26 70° W 19:08:43 10° S
NOSS 2-1 (E) 4.0 19:00:20 10° NNW 19:03:31 37° NE 19:07:30 10° ESE
NOSS 8 (A) 4.2 19:03:09 10° NNW 19:06:02 60° NE 19:09:15 10° SE
Cosmos 2366 rocket 4.0 19:00:19 10° S 19:06:27 80° E 19:12:36 10° N
Cosmos 44 3.9 19:04:46 10° S 19:09:20 37° ESE 19:14:09 10° NE
NOSS 2-1 (C) 3.6 19:06:13 10° NNW 19:09:31 48° NE 19:13:45 10° SE
Okean-O 4.4 19:07:40 10° E 19:10:15 16° ENE 19:12:51 10° NNE
Cosmos 1727 Rocket 4.4 19:07:57 10° N 19:14:01 45° ENE 19:20:00 10° SSE
SL-16 R/B 2.8 19:10:32 10° SSE 19:15:33 34° ESE 19:20:37 10° NE
Cosmos 1378 Rocket 3.8 19:12:07 10° N 19:16:24 51° ENE 19:20:37 10° SSE
Okean O Rocket 3.2 19:15:51 11° ESE 19:18:43 19° ENE 19:21:46 10° NNE
CZ-4 R/B 1.1 19:19:53 10° SSE 19:23:36 72° ENE 19:27:16 10° N
SPOT 5 3.0 19:22:45 10° S 19:27:16 69° WSW 19:31:38 10° NNW
NOSS 3-4 (A) 4.4 19:23:58 10° WSW 19:29:02 45° NW 19:34:38 10° NNE
NOSS 3-4 (C) 4.4 19:24:28 10° WSW 19:29:34 46° NW 19:35:12 10° NNE
Cosmos 1656 Rocket 3.7 19:27:06 10° NNW 19:32:34 66° ENE 19:37:23 14° SE
Cosmos 1025 Rocket 3.4 19:29:02 10° N 19:33:08 44° ENE 19:36:27 15° SE
Helios 1A Rocket 2.1 19:30:42 10° NNE 19:33:55 78° ESE 19:37:06 10° S
CZ-4B R/B 4.0 19:31:28 10° S 19:35:11 69° WSW 19:39:03 10° NNW
PAYLOAD B 4.2 19:29:46 10° SSE 19:35:13 70° ENE 19:40:42 10° N
Cosmos 1733 Rocket 3.3 19:31:04 10° SSW 19:35:25 73° W 19:39:50 10° N
Terra 1.9 19:32:09 11° SSE 19:36:28 56° ENE 19:41:04 10° N
Cosmos 2242 Rocket 3.8 19:32:51 10° NNW 19:37:17 73° W 19:41:39 10° S
BREEZE-M DEB (TANK) 2.9 19:36:28 10° WNW 19:39:04 51° NNE 19:43:55 13° E
IRAS Rocket 4.5 19:34:13 10° S 19:39:41 71° WSW 19:45:10 10° NNW
Resurs 01 Rocket 4.4 19:38:38 10° SW 19:41:20 16° W 19:44:03 10° NW
Cosmos 1821 Rocket 4.1 19:35:41 10° S 19:41:57 84° W 19:48:23 10° N
Cosmos 2237 Rocket 3.5 19:38:02 10° SW 19:43:27 44° WNW 19:48:54 10° NNE
CSL-04 Rocket 4.4 19:43:00 10° S 19:48:26 54° W 19:53:52 10° NNW
Cosmos 2150 Rocket 4.1 19:43:39 10° S 19:48:37 52° ESE 19:53:40 10° NNE
Cosmos 1300 Rocket 4.5 19:48:14 22° SE 19:49:48 28° E 19:53:28 10° NNE
BREEZE-M DEB (TANK) 3.7 19:50:32 10° WNW 19:52:50 35° N 19:57:06 10° ENE
Cosmos 1346 Rocket 2.4 19:49:18 10° N 19:52:54 77° E 19:55:10 21° SSE
Cosmos 1400 Rocket 4.0 19:53:39 10° SSW 19:57:03 40° WNW 20:00:29 10° N
SL-4 R/B 2.6 19:53:53 10° SSW 19:57:14 30° SE 19:57:35 29° SE
BREEZE-M DEB (TANK) 3.8 19:53:33 10° SSW 19:57:25 51° SE 20:10:02 10° NE
Cosmos 1812 3.6 19:56:53 10° SW 19:58:10 19° WNW 19:59:28 10° NNW
Meteor 2-16 Rocket 4.4 19:52:55 10° N 19:59:05 82° E 20:04:36 13° S
Meteor 1-31 Rocket 4.2 19:56:40 10° SSW 19:59:52 33° W 20:03:06 10° NNW
Cosmos 1602 2.9 19:57:42 10° N 19:59:37 42° NE 19:59:37 42° NE
Cosmos 1000 Rocket 4.4 19:53:56 10° N 20:00:06 78° E 20:05:23 14° SSE
Dummy Sat-02 4.4 19:59:01 16° S 20:01:47 82° E 20:05:23 10° N
ASTEX 1 3.5 19:59:47 22° SSE 20:02:52 56° E 20:07:42 10° N
Gbstr 26 Del rocket 3.8 19:59:25 10° SSW 20:04:18 36° SE 20:06:31 23° E
USA 59 Rocket 1.1 20:01:05 10° NW 20:04:29 36° WSW 20:07:46 16° S
Cosmos 1869 3.3 20:06:01 37° SE 20:06:49 45° E 20:10:15 10° NNE
Cosmos 2297 4.0 20:02:08 10° NNW 20:07:47 54° ENE 20:10:44 27° SE
Cosmos 1315 Rocket 3.9 20:08:55 25° E 20:08:55 25° E 20:11:34 10° NE
SPOT 3 Rocket 4.4 20:08:16 25° ESE 20:10:15 33° ENE 20:14:52 10° N
ADEOS 3.7 20:06:33 16° S 20:10:49 77° WSW 20:16:04 10° NNW
Cosmos 2369 Rocket 2.2 20:06:36 10° NNW 20:12:10 65° ENE 20:14:59 29° SE
USA 186 2.3 20:14:08 31° NNE 20:14:08 31° NNE 20:15:38 10° N
SL-08 R/B 3.3 20:10:18 10° NNE 20:15:15 89° W 20:20:08 10° SSW
Lacrosse 5 rocket 3.5 20:16:26 10° N 20:17:34 11° NNE 20:18:42 10° NE
Cosmos 2285 Rocket 3.9 20:13:12 10° SSW 20:19:35 86° ESE 20:25:57 10° NNE
USA 234 3.2 20:13:33 10° NE 20:20:08 85° SE 20:26:42 10° SW
Cosmos 2221 Rocket 3.5 20:15:56 10° N 20:20:23 85° W 20:22:40 28° S
YAOGAN 11 3.9 20:16:15 10° NNE 20:20:32 72° ESE 20:23:06 24° S
Cosmos 405 Rocket 3.0 20:22:16 10° N 20:24:26 34° NE 20:24:26 34° NE
Cosmos 1943 3.4 20:23:24 24° S 20:26:28 48° ESE 20:31:54 10° NE
CZ-4B R/B 3.3 20:27:35 36° ENE 20:27:35 36° ENE 20:30:31 10° N
Molniya-1 3.7 20:25:18 10° SW 20:27:54 60° NW 20:33:15 10° NE
CZ-4B R/B 3.9 20:23:42 13° S 20:28:29 53° W 20:34:02 10° NNW
Cosmos 921 Rocket 4.1 20:25:47 10° N 20:29:38 29° ENE 20:30:06 28° ENE
SL-8 R/B 4.0 20:27:53 10° W 20:32:35 64° NNW 20:36:05 18° ENE
OAO 2 Rocket 4.5 20:30:37 10° WSW 20:34:49 26° S 20:34:49 26° S
Cosmos 1975 Rocket 3.4 20:31:21 10° N 20:35:36 45° ENE 20:35:59 44° E
Cosmos 1356 Rocket 4.1 20:36:34 36° ENE 20:36:34 36° ENE 20:39:38 10° NNE
ERS-1 Rocket 4.4 20:33:53 10° SSW 20:38:24 34° W 20:42:57 10° NNW
CZ-2C R/B 4.1 20:44:38 21° NNE 20:44:38 21° NNE 20:45:55 10° N
Cosmos 2263 4.1 20:37:39 10° NNW 20:43:20 85° ENE 20:45:15 44° SSE
Okean-O 3.0 20:44:32 37° SSW 20:46:04 59° W 20:50:24 10° NNW
Okean O Rocket 2.4 20:53:05 32° SSW 20:54:34 45° W 20:58:44 10° NNW
CZ-4B R/B 3.2 20:55:25 62° SE 20:56:06 75° ENE 21:00:51 10° N
Ariane Rocket 2.9 20:57:13 58° ESE 20:57:58 68° ENE 21:02:59 10° N
SL-16 R/B 3.5 20:54:16 10° SW 20:59:33 39° NW 21:04:53 10° NNE
Cosmos 1782 Rocket 3.9 20:58:38 40° SW 20:59:56 61° W 21:04:13 10° N
Spot 2 Rocket 4.5 21:03:19 26° SSW 21:05:33 40° W 21:10:17 10° NNW
USA 245 4.0 21:05:18 54° SSW 21:06:19 70° W 21:11:48 10° NNW
Cosmos 1269 Rocket 3.9 21:04:18 10° NNW 21:09:35 86° WSW 21:10:20 67° S
ATLAS 5 CENTAUR R/B 3.0 21:07:09 10° NNW 21:10:42 27° NE 21:11:03 27° NE
Cosmos 1140 Rocket 3.4 21:07:00 10° NNW 21:12:08 75° WSW 21:12:46 65° SSW
Terra 4.2 21:11:21 10° SW 21:14:21 17° W 21:17:21 10° NW
IRS-P2 Rocket 4.4 21:19:05 75° SE 21:19:31 83° ENE 21:24:45 10° NNW
NOSS 3-1 (C) 4.3 21:12:45 10° NW 21:19:58 63° WSW 21:23:02 41° S
Cosmos 1153 Rocket 4.4 21:22:56 63° SSE 21:23:51 73° E 21:30:08 10° NNE
Cosmos 1862 4.3 21:20:27 10° NNW 21:22:56 40° NNW 21:22:56 40° NNW
Cosmos 1447 Rocket 4.4 21:20:15 10° N 21:26:31 87° W 21:27:42 61° S
Cosmos 1459 Rocket 4.4 21:26:51 45° E 21:26:51 45° E 21:32:42 10° NNE
Cosmos 2058 3.6 21:24:32 10° NNW 21:27:31 48° NW 21:27:31 48° NW
Meteor 2-17 Rocket 4.3 21:22:38 10° N 21:28:48 76° E 21:29:29 68° SE
Cosmos 407 Rocket 3.4 21:23:59 10° NNW 21:28:57 73° NE 21:28:57 73° NE
Cosmos 371 Rocket 3.6 21:28:59 10° NNW 21:33:16 60° NNE 21:33:16 60° NNE
SL-4 R/B 4.4 21:30:40 10° WSW 21:31:14 14° WSW 21:31:14 14° WSW
ATLAS 2AS CENTAUR R/B 4.3 21:38:07 19° ENE 21:38:07 19° ENE 21:40:37 10° ENE
COSMOS 2455 2.7 21:34:54 10° NNW 21:40:57 88° ENE 21:41:17 81° SE
SJ 16-02 2.4 21:37:35 10° N 21:40:32 38° NNE 21:40:32 38° NNE
Cosmos 2251 Rocket 4.1 21:38:35 10° N 21:43:27 48° NE 21:43:27 48° NE
Gbstr 26 Del rocket 4.4 21:45:44 10° WSW 21:48:40 33° W 21:48:40 33° W
Lacrosse 5 rocket 3.7 21:51:59 10° NW 21:52:48 16° NNW 21:52:48 16° NNW
Cosmos 2369 Rocket 4.0 21:51:45 10° NW 21:55:36 19° W 21:56:46 18° WSW
SeaSat 1 3.6 21:56:42 34° NE 21:56:42 34° NE 22:00:50 10° N
USA 234 4.4 21:56:45 10° NE 22:02:47 42° NNW 22:08:50 10° W
Cosmos 2173 Rocket 3.8 22:03:22 87° NE 22:03:22 87° NE 22:09:24 10° N
Cosmos 1697 Rocket 4.1 22:00:14 10° N 22:04:58 27° NE 22:05:24 26° ENE
Cosmos 1603 4.0 22:07:59 58° W 22:08:31 61° WNW 22:14:09 10° NNE
Meteor 2-3 Rocket 3.8 22:09:06 10° NNW 22:14:03 70° NNW 22:14:03 70° NNW
NOSS 3-1 (A) 4.3 22:12:31 10° NW 22:19:46 59° WSW 22:20:42 56° SW
Cosmos 1980 Rocket 4.1 22:21:17 10° N 22:25:23 20° NE 22:26:38 18° ENE
Cosmos 2100 Rocket 4.2 22:26:44 59° W 22:26:59 60° WNW 22:33:08 10° N
Tsikada Rocket 4.2 22:26:32 10° N 22:32:10 61° NE 22:32:10 61° NE
Cosmos 2061 Rocket 4.4 22:35:46 52° NE 22:35:46 52° NE 22:40:50 10° NNE
Cosmos 1656 4.4 22:40:23 10° NNW 22:44:20 45° WNW 22:44:20 45° WNW
ATLAS 5 CENTAUR R/B 3.7 22:48:39 10° NW 22:50:11 21° WNW 22:50:11 21° WNW
ATLAS 3B R/B 3.8 22:45:38 10° NNW 22:53:04 44° NE 22:55:41 34° E
Aureole 3 Rocket 4.5 22:58:44 45° NNE 22:58:44 45° NNE 23:03:18 10° NNE
Cosmos 1833 Rocket 3.5 23:01:17 46° NNE 23:01:17 46° NNE 23:05:10 10° NNE
Cosmos 2082 Rocket 4.4 23:02:51 15° ENE 23:02:51 15° ENE 23:04:18 10° ENE
ALOS 2 4.4 23:03:31 29° NNW 23:03:31 29° NNW 23:05:43 10° NNW
CZ-2C R/B 4.4 23:05:59 10° NNE 23:09:16 34° NE 23:09:16 34° NE
Cosmos 2233 Rocket 4.4 23:18:32 56° WNW 23:18:32 56° WNW 23:24:12 10° N
SJ 16-02 4.2 23:17:01 10° WNW 23:17:01 10° WNW 23:17:01 10° WNW
USA 229 DEB 4.1 23:12:01 10° NW 23:19:33 72° NE 23:20:33 65° E
USA 229 4.1 23:12:04 10° NW 23:19:36 71° NE 23:20:40 64° E
ATLAS 2AS CENTAUR R/B 2.8 23:25:29 71° NW 23:25:29 71° NW 23:32:20 10° NE
CZ-2C R/B 3.5 23:29:07 47° NNE 23:29:07 47° NNE 23:33:20 10° N
SeaSat 1 4.4 23:36:18 22° WNW 23:36:18 22° WNW 23:38:17 10° NW
Nadezhda 4 Rocket 4.3 23:37:43 10° N 23:43:04 58° NE 23:43:04 58° NE
ACS3 Solar Sail 3.2 23:40:18 10° NE 23:44:46 26° E 23:44:46 26° E
Cosmos 1697 Rocket 3.9 23:43:45 10° NNW 23:47:06 35° NW 23:47:06 35° NW
Cosmos 1464 Rocket 4.2 23:54:07 64° NNE 23:54:07 64° NNE 23:59:17 10° N
